Weather in Verkhnyaya Zhemtala

Russia / The Kabardino-Balkar Republic     43°13′57″N   43°40′03″E
temp.,
°C
wind,
m/s
gust,
m/s
humid.,
%
clouds,
%
prec.,
mm/h
press.,
hPa
HPBL,
m
2 march, tue
tue200:00−5sw2374100 0.0 103028
03:00−4sw3370100 0.0 103030
06:00−6sw336613 0.0 103130
09:000nnw11656 0.0 1030179
12:00+2ene11780 0.0 1027626
15:00+2ene11780 0.0 1026648
18:00−2ssw11850 0.0 102622
21:00−4sw33740 0.0 102731
3 march, wed
wed300:00−4sw33650 0.0 102635
03:00−4wsw22620 0.0 102428
06:00−5sw226651 0.0 102326
09:00−1n237042 0.0 1022267
12:00+1nne227581 0.0 1020549
15:00+1ene117690 0.0 1020434
18:00−2nne1192100 0.4 102240
21:00−3sse1296100 2.2 1026182
4 march, thu
thu400:00−3ssw1295100 1.4 102766
03:00−5sw228599 2.1 102848
06:00−6sw128798 0.4 102952
09:00−3se128177 0.4 1028298
12:00+1se11839 0.0 1026407
15:00+1se11799 0.0 1024441
18:00−3s118610 0.0 102521
21:00−4sw23746 0.0 102529
5 march, fri
fri500:00−4sw23650 0.0 102427
03:00−4sw22620 0.0 102325
06:00−4sw22580 0.0 102223
09:00+1ene01630 0.0 1021126
12:00+5e00681 0.0 1019342
15:00+5sse01722 0.0 1019428
18:00+1ssw128012 0.0 102022
21:000sw33646 0.0 102226
6 march, sat
sat600:000sw34570 0.0 102129
03:000sw34550 0.0 102129
06:00+1sw34530 0.0 102029
09:00+6sw22648 0.0 101958
12:00+10ene01611 0.0 1015279
15:00+10e016147 0.0 1014320
18:00+5sw3362100 0.0 101538
21:00+3sw4455100 0.0 101678